Location: A O Calhoun Middle School
(33.2198°N, 97.1397°W)
Time: 10:42:43
(UTC+00:00)

H-2A R/B - Pass Details

Date: 11 July 2022
Orbit: 577 x 651 km, 98.5° (Epoch: 07 August)

Event Time Altitude Azimuth Distance (km) Brightness Sun altitude
Rises 02:02:31 0° 26° (NNE) 2,967 5.6 -4.9°
Reaches altitude 10° 02:05:00 10° 38° (NE) 2,057 4.7 -5.3°
Maximum altitude 02:08:53 28° 98° (E) 1,209 3.1 -6.0°
Drops below altitude 10° 02:12:44 10° 157° (SSE) 2,047 4.2 -6.7°
Sets 02:15:11 0° 169° (S) 2,949 5.1 -7.2°
